Location: Unspecified
(40.7945°N, 111.1337°W)
Time: 09:46:27
(UTC-06:00)

Cosmos 1674 - Visible Passes

Search period start: 26 April 2017 00:00
Search period end: 06 May 2017 00:00
Orbit: 499 x 522 km, 82.5° (Epoch: 24 April)

Date Brightness Start Highest point End Pass type
(mag) Time Alt. Az. Time Alt. Az. Time Alt. Az.
28 Apr 2.8 05:49:39 10° S 05:53:24 79° E 05:57:14 10° N visible
29 Apr 3.3 05:33:12 10° S 05:36:55 60° E 05:40:41 10° NNE visible
30 Apr 3.8 05:16:49 10° SSE 05:20:26 46° E 05:24:06 10° NNE visible
01 May 4.3 05:00:30 10° SSE 05:03:57 35° E 05:07:28 10° NNE visible
02 May 4.7 04:44:14 10° SSE 04:47:30 28° E 04:50:47 10° NNE visible
03 May 5.0 04:28:04 10° SE 04:31:02 22° E 04:34:01 10° NE visible
04 May 5.3 04:12:01 10° SE 04:14:34 17° E 04:17:09 10° NE visible
04 May 3.7 05:46:39 10° SW 05:49:56 28° WNW 05:53:17 10° NNW visible
05 May 5.5 03:56:08 10° ESE 03:58:07 14° E 04:00:08 10° NE visible
05 May 3.4 05:29:51 10° SW 05:33:22 35° WNW 05:36:55 10° N visible
